This demonstration page uses our WeatherBlox Daily Observations layout. Learn more.

Left ArrowRight Arrow

38.20091, -84.87328

Hourly Observations for February 24, 2020

Temp ( °F °C ) Dew Point ( °F °C ) Humidity (%) Winds ( mph kmh ) Pressure ( in mb ) Visibility ( mi km ) Precip ( " mm )
12:53 am 00:53 Mostly Cloudy 46 7.8 32 0 58 58 SW 8 13 30.04 1017 10 16 0.00 0.00
1:53 am 01:53 Cloudy 46 7.8 33 0.6 61 61 SSW 6 9 30.03 1017 10 16 0.00 0.00
2:53 am 02:53 Cloudy 46 7.8 33 0.6 61 61 S 3 6 30.01 1016 10 16 0.00 0.00
3:53 am 03:53 Cloudy 46 7.8 33 0.6 61 61 S 3 6 30.00 1016 10 16 0.00 0.00
4:53 am 04:53 Cloudy 46 7.8 34 1.1 63 63 S 6 9 29.99 1016 10 16 0.00 0.00
5:28 am 05:28 Cloudy 45 7.2 37 2.8 74 74 SSW 12 19 30.01 1016 10 16 0.00 0.00
5:53 am 05:53 Cloudy with Light Rain 44 6.7 38 3.3 79 79 S 8 13 29.99 1016 10 16 0.00 0.00
6:36 am 06:36 Cloudy with Light Rain 43 6.1 39 3.9 86 86 S 9 15 30.02 1017 9 14 0.02 0.51
6:53 am 06:53 Cloudy with Light Rain 43 6.1 39 3.9 86 86 S 7 11 30.01 1016 9 14 0.03 0.76
7:25 am 07:25 Cloudy with Light Rain 43 6.1 39 3.9 86 86 S 7 11 30.02 1017 9 14 0.01 0.25
7:53 am 07:53 Cloudy with Light Rain 43 6.1 39 3.9 86 86 S 7 11 30.01 1016 6 10 0.02 0.51
8:16 am 08:16 Cloudy with Light Rain 43 6.1 39 3.9 86 86 S 8 13 30.02 1017 6 10 0.01 0.25
8:39 am 08:39 Cloudy with Light Rain 43 6.1 40 4.4 89 89 S 7 11 30.02 1017 5 8 0.03 0.76
8:53 am 08:53 Cloudy with Light Rain 43 6.1 40 4.4 89 89 S 8 13 30.01 1016 7 11 0.03 0.76
9:13 am 09:13 Cloudy with Light Rain 43 6.1 40 4.4 89 89 SSE 9 15 30.02 1017 10 16 0.01 0.25
9:53 am 09:53 Cloudy with Light Rain 43 6.1 40 4.4 89 89 SE 9 15 29.98 1015 6 10 0.03 0.76
10:36 am 10:36 Cloudy with Light Rain 45 7.2 41 5 86 86 SSE 10 17 29.98 1015 10 16 0.03 0.76
10:53 am 10:53 Cloudy 46 7.8 42 5.6 86 86 SSE 10 17 29.96 1015 10 16 0.03 0.76
11:01 am 11:01 Cloudy 45 7.2 41 5 86 86 SE 12 19 29.97 1015 10 16 0.00 0.00
11:45 am 11:45 Cloudy 46 7.8 40 4.4 79 79 SSE 15 24 29.94 1014 10 16 0.00 0.00
11:53 am 11:53 Cloudy 46 7.8 40 4.4 79 79 SSE 12 19 29.94 1014 10 16 0.00 0.00
12:24 pm 12:24 Cloudy 47 8.3 40 4.4 77 77 SE 10 17 29.93 1013 10 16 0.00 0.00
12:51 pm 12:51 Cloudy 46 8 39 4 76 76 SE 12 19 29.91 1013 10 16 0.00 0.00
12:53 pm 12:53 Cloudy 47 8.3 39 3.9 74 74 SE 9 15 29.89 1012 10 16 0.00 0.00
1:53 pm 13:53 Cloudy 46 7.8 39 3.9 77 77 SE 8 13 29.87 1011 10 16 0.00 0.00
2:53 pm 14:53 Cloudy with Light Rain 46 7.8 41 5 83 83 SE 13 20 29.80 1009 10 16 0.01 0.25
3:45 pm 15:45 Cloudy with Light Rain 45 7.2 42 5.6 90 90 SE 9 15 29.80 1009 3 4 0.02 0.51
3:53 pm 15:53 Cloudy with Light Rain 45 7.2 42 5.6 90 90 ESE 8 13 29.78 1009 3 4 0.02 0.51
4:01 pm 16:01 Cloudy with Light Rain 45 7.2 42 5.6 90 90 ESE 8 13 29.79 1009 5 8 0.00 0.00
4:25 pm 16:25 Cloudy with Rain 45 7.2 42 5.6 90 90 ESE 8 13 29.79 1009 4 6 0.03 0.76
4:53 pm 16:53 Cloudy with Light Rain 45 7.2 42 5.6 90 90 SE 7 11 29.76 1008 4 6 0.06 1.52
5:14 pm 17:14 Cloudy with Rain 45 7.2 42 5.6 90 90 SE 8 13 29.77 1008 3 4 0.04 1.02
5:29 pm 17:29 Cloudy with Light Rain 45 7.2 42 5.6 90 90 SE 8 13 29.77 1008 3 5 0.05 1.27
5:51 pm 17:51 Cloudy with Light Rain 45 7 43 6 93 93 ESE 6 9 29.77 1008 3 4 0.06 1.52
5:53 pm 17:53 Cloudy with Light Rain 45 7.2 42 5.6 90 90 SE 7 11 29.75 1008 3 5 0.06 1.52
6:53 pm 18:53 Cloudy with Light Rain 45 7.2 43 6.1 93 93 ESE 7 11 29.75 1007 6 10 0.01 0.25
7:05 pm 19:05 Cloudy with Light Rain 45 7.2 43 6.1 93 93 ESE 7 11 29.76 1008 7 11 0.00 0.00
7:53 pm 19:53 Cloudy 46 7.8 43 6.1 89 89 SE 5 7 29.74 1007 9 14 0.02 0.51
8:04 pm 20:04 Cloudy with Light Rain 46 7.8 43 6.1 89 89 ESE 5 7 29.75 1007 7 11 0.01 0.25
8:23 pm 20:23 Cloudy with Light Rain 46 7.8 43 6.1 89 89 ESE 5 7 29.75 1007 6 10 0.01 0.25
8:53 pm 20:53 Cloudy with Light Rain 46 7.8 43 6.1 89 89 ESE 5 7 29.72 1007 6 10 0.02 0.51
9:01 pm 21:01 Cloudy 46 7.8 43 6.1 89 89 ESE 5 7 29.74 1007 8 13 0.00 0.00
9:30 pm 21:30 Cloudy with Mist and Fog 46 7.8 44 6.7 93 93 ESE 5 7 29.73 1007 6 10 0.00 0.00
9:44 pm 21:44 Cloudy with Mist and Fog 46 7.8 44 6.7 93 93 ESE 5 7 29.73 1007 5 8 0.00 0.00
9:53 pm 21:53 Cloudy with Mist and Fog 46 7.8 44 6.7 93 93 ESE 6 9 29.71 1006 5 8 0.00 0.00
10:23 pm 22:23 Cloudy with Heavy Rain 46 7.8 44 6.7 93 93 ESE 6 9 29.73 1007 2 3 0.08 2.03
10:34 pm 22:34 Cloudy with Light Rain 47 8.3 44 6.7 90 90 SE 6 9 29.71 1006 6 10 0.09 2.29
10:49 pm 22:49 Cloudy 46 8 45 7 93 93 Calm 29.72 1006 9 14 0.09 2.29
10:53 pm 22:53 Cloudy with Light Rain 47 8.3 45 7.2 93 93 Calm 29.70 1006 8 13 0.09 2.29
11:37 pm 23:37 Cloudy with Light Rain 47 8.3 44 6.7 90 90 ESE 5 7 29.70 1006 7 11 0.01 0.25
11:53 pm 23:53 Cloudy 47 8.3 45 7.2 93 93 ESE 5 7 29.68 1005 10 16 0.02 0.51

Powered by AerisWeather